Regional Weather Roundup
Issued by NWS

Home | Current Version | Previous Version | Graphics & Text | Print | Product List | Glossary On
Versions: 1 2 3 4 5 6 7 8 9 10 11 12 13 14 15 16 17 18 19 20 21 22 23 24 25 26 27 28 29 30 31 32 33 34 35 36 37 38 39 40 41 42 43 44 45 46 47 48 49 50
000
ASUS43 KFSD 220902
RWRSD

WEATHER ROUNDUP FOR SOUTH DAKOTA
NATIONAL WEATHER SERVICE SIOUX FALLS SD
400 AM CDT THU JUN 22 2017

NOTE: "FAIR" INDICATES FEW OR NO CLOUDS BELOW 12,000 FEET WITH NO
SIGNIFICANT WEATHER AND/OR OBSTRUCTIONS TO VISIBILITY.


SDZ001>005-009-010-012>017-221000-
NORTHWEST AND NORTH CENTRAL SOUTH DAKOTA

CITY           SKY/WX    TMP DP  RH WIND       PRES   REMARKS
BUFFALO          N/A     59  49  69 N9        29.77R
FAITH            N/A     59  53  80 SE14      29.73F
MOBRIDGE       CLOUDY    62  51  67 E3        29.71F
$$

SDZ012>016-024>037-041>051-057-063-072>074-221000-
SOUTHWEST AND SOUTH CENTRAL SOUTH DAKOTA

CITY           SKY/WX    TMP DP  RH WIND       PRES   REMARKS
RAPID CTY ARPT CLOUDY    58  48  69 CALM      29.80F
PIERRE         CLOUDY    56  50  80 E13       29.72R
CUSTER         CLOUDY    56  44  64 NE10G21   29.89F
ELLSWORTH AFB  CLOUDY    61  49  63 N3        29.80S
PHILIP         CLOUDY    65  50  58 NE12      29.73F
PINE RIDGE     CLOUDY    64  56  75 NE9       29.73R
SPEARFISH      MOCLDY    57  54  88 SE7       29.82F
WINNER         FAIR      68  59  73 E12       29.67F
$$

SDZ004>011-016>023-039-040-221000-
NORTHEAST SOUTH DAKOTA

CITY           SKY/WX    TMP DP  RH WIND       PRES   REMARKS
ABERDEEN       LGT RAIN  61  56  83 S6        29.73R
WATERTOWN      LGT RAIN  60  55  83 E6        29.71F
BROOKINGS      CLOUDY    69  52  54 N15G26    29.72R
SISSETON         N/A     64  56  75 N6        29.70R
$$

SDZ017-020-022-023-036>040-048>070-221000-
SOUTHEAST SOUTH DAKOTA

CITY           SKY/WX    TMP DP  RH WIND       PRES   REMARKS
SIOUX FALLS    CLEAR     71  70  96 N13       29.62F
HURON          NOT AVBL
CHAMBERLAIN    CLOUDY    71  54  55 NE13G22   29.66F
MITCHELL       CLOUDY    71  59  65 NE14      29.67R
YANKTON        CLEAR     71  69  93 N7        29.59S
$$

ABBREVIATIONS USED IN REMARKS
   TC - TEMPERATURE IN CELSIUS
  WCI - WIND CHILL INDEX
   HX - HEAT INDEX
  VSB - VISIBILITY




USA.gov is the U.S. government's official web portal to all federal, state and local government web resources and services.